This is the latest recevied weather packets stored in our database for station/object WV8BRW. If no packets are shown the sender has not sent any weather packets the latest 1 day(s).
| Time | Temp. | Humidity | Pressure | Rain* | Wind** | Luminosity | Snow |
|---|---|---|---|---|---|---|---|
| 1836274731 | 15° C | 94% | 1016.7 hPa | 0 mm | 0 m/s | 0 W/m² | - |
| 1836274584 | 15° C | 94% | 1016.8 hPa | 0 mm | 0.45 m/s, 335° | 0 W/m² | - |
| 1836274430 | 15° C | 93% | 1017 hPa | 0 mm | 0 m/s | 0 W/m² | - |
| 1836274283 | 15° C | 95% | 1016.9 hPa | 0 mm | 0 m/s | 0 W/m² | - |
| 1836274128 | 15.56° C | 93% | 1016.7 hPa | 0 mm | 0 m/s | 0 W/m² | - |
| 1778054187 | 14.44° C | 99% | 1005.1 hPa | 3.05 mm | 0 m/s | 0 W/m² | - |
| 1778053883 | 14.44° C | 99% | 1005.2 hPa | 4.83 mm | 0 m/s | 0 W/m² | - |
| 1778053581 | 14.44° C | 99% | 1005 hPa | 4.83 mm | 0 m/s | 0 W/m² | - |
| 1778053278 | 14.44° C | 99% | 1005.3 hPa | 3.05 mm | 0 m/s | 0 W/m² | - |
| 1778052976 | 14.44° C | 99% | 1005.1 hPa | 3.05 mm | 0 m/s | 0 W/m² | - |
| 1778052673 | 14.44° C | 99% | 1005 hPa | 3.05 mm | 0 m/s | 0 W/m² | - |
| 1778052370 | 14.44° C | 99% | 1004.9 hPa | 1.27 mm | 0 m/s | 0 W/m² | - |
| 1778052068 | 14.44° C | 99% | 1005 hPa | 0 mm | 0 m/s | 0 W/m² | - |
| 1778051765 | 14.44° C | 99% | 1005 hPa | 0 mm | 0 m/s | 0 W/m² | - |
| 1778051463 | 14.44° C | 99% | 1004.9 hPa | 0 mm | 0 m/s | 0 W/m² | - |
| 1778051160 | 14.44° C | 99% | 1005 hPa | 0 mm | 0 m/s | 0 W/m² | - |
| 1778050857 | 14.44° C | 99% | 1005.2 hPa | 0 mm | 0 m/s | 0 W/m² | - |
| 1778050555 | 14.44° C | 99% | 1005.2 hPa | 1.78 mm | 0 m/s | 0 W/m² | - |
| 1778050251 | 14.44° C | 99% | 1005.5 hPa | 4.83 mm | 0 m/s | 0 W/m² | - |
| 1778049948 | 14.44° C | 99% | 1005.6 hPa | 3.05 mm | 0 m/s | 0 W/m² | - |
| 1778049643 | 14.44° C | 99% | 1006.2 hPa | 1.78 mm | 0 m/s | 0 W/m² | - |
| 1778049342 | 14.44° C | 99% | 1005.8 hPa | 0 mm | 0 m/s | 0 W/m² | - |
| 1778049039 | 14.44° C | 99% | 1005.8 hPa | 1.27 mm | 0 m/s | 0 W/m² | - |
| 1778048737 | 15° C | 99% | 1005.8 hPa | 4.32 mm | 0 m/s | 0 W/m² | - |
| 1778048434 | 15° C | 99% | 1006.1 hPa | 4.83 mm | 0.45 m/s, 341° | 0 W/m² | - |
* Rain latest hour (hover to see other rain measurements)
** Current wind speed in m/s (hover to see current wind gust speed)